KMADALTO1 Weather Reports


Display with metric or nautical units.
time (UTC)temp
F
wind
direction
speed
MPH
gust
MPH
rain 1hr
in
rain 24hr
in
rain mn
in
humidity
%
barometer
mb
20260506001601 64 0 0.0 0.0 0.00 0.00 0.00 66 1008.1
20260506001052 64 0 0.0 0.0 0.00 0.00 0.00 65 1008.0
20260506000552 65 0 0.0 1.0 0.00 0.00 0.00 65 1008.1
20260506000054 65 0 0.0 1.0 0.00 0.00 0.00 65 1008.2
20260505235551 65 0 0.0 1.0 0.00 0.00 0.00 65 1008.0
20260505235051 65 0 0.0 2.0 0.00 0.00 0.00 65 1008.0
20260505234559 65 229 0.0 2.0 0.00 0.00 0.00 64 1008.0
20260505234054 65 0 1.0 2.0 0.00 0.00 0.00 64 1008.1
20260505233551 66 0 0.0 3.0 0.00 0.00 0.00 63 1008.2
20260505233055 66 0 0.0 3.0 0.00 0.00 0.00 63 1008.0
20260505232554 66 232 1.0 3.0 0.00 0.00 0.00 62 1007.9
20260505232051 66 186 1.0 9.0 0.00 0.00 0.00 62 1008.0
20260505231602 67 0 2.0 9.0 0.00 0.00 0.00 61 1007.8
20260505231050 67 167 1.0 9.0 0.00 0.00 0.00 60 1007.7
20260505230551 68 355 3.0 11.0 0.00 0.00 0.00 59 1007.7
20260505230059 70 241 4.0 14.0 0.00 0.00 0.00 55 1007.7
20260505225551 72 105 4.0 14.0 0.00 0.00 0.00 49 1007.8
20260505225053 74 251 3.0 13.0 0.00 0.00 0.00 44 1007.5
20260505224554 75 309 7.0 16.0 0.00 0.00 0.00 38 1007.1
20260505224051 75 223 7.0 16.0 0.00 0.00 0.00 37 1006.6
20260505223551 75 187 6.0 14.0 0.00 0.00 0.00 36 1006.2
20260505223049 75 254 4.0 14.0 0.00 0.00 0.00 36 1006.2
20260505222552 75 150 5.0 14.0 0.00 0.00 0.00 35 1005.9
20260505222051 75 297 4.0 16.0 0.00 0.00 0.00 35 1006.1
20260505221557 75 273 6.0 17.0 0.00 0.00 0.00 34 1006.1
20260505221051 75 232 6.0 17.0 0.00 0.00 0.00 34 1006.1
20260505220554 75 257 8.0 16.0 0.00 0.00 0.00 34 1005.9
20260505220056 76 223 3.0 17.0 0.00 0.00 0.00 34 1005.9
20260505215551 76 219 7.0 20.0 0.00 0.00 0.00 34 1006.0
20260505215051 76 213 7.0 20.0 0.00 0.00 0.00 34 1005.9
20260505214555 76 261 7.0 19.0 0.00 0.00 0.00 33 1006.0
20260505214051 76 263 7.0 22.0 0.00 0.00 0.00 34 1005.8
20260505213551 76 198 7.0 22.0 0.00 0.00 0.00 33 1005.9
20260505213059 77 235 9.0 19.0 0.00 0.00 0.00 33 1006.0
20260505212550 77 246 6.0 20.0 0.00 0.00 0.00 33 1005.8
20260505212051 77 267 7.0 20.0 0.00 0.00 0.00 33 1005.8
20260505211558 76 308 8.0 24.0 0.00 0.00 0.00 33 1005.7
20260505211051 76 316 10.0 25.0 0.00 0.00 0.00 33 1005.6
20260505210550 77 232 8.0 25.0 0.00 0.00 0.00 32 1005.6
20260505210054 77 225 5.0 19.0 0.00 0.00 0.00 32 1005.3
20260505205550 77 202 3.0 21.0 0.00 0.00 0.00 32 1005.4
20260505205051 77 279 9.0 21.0 0.00 0.00 0.00 32 1005.4
20260505204557 77 266 6.0 20.0 0.00 0.00 0.00 33 1005.6
20260505204050 77 234 7.0 17.0 0.00 0.00 0.00 33 1006.0
20260505203551 78 259 6.0 20.0 0.00 0.00 0.00 33 1005.8
20260505203100 77 330 8.0 24.0 0.00 0.00 0.00 33 1005.9
20260505202551 77 200 10.0 24.0 0.00 0.00 0.00 33 1005.9
20260505202051 77 225 8.0 19.0 0.00 0.00 0.00 34 1005.9
20260505201601 76 234 9.0 26.0 0.00 0.00 0.00 34 1005.7
20260505201051 77 294 10.0 26.0 0.00 0.00 0.00 34 1005.7
20260505200551 77 155 7.0 19.0 0.00 0.00 0.00 33 1005.8
20260505195553 77 293 8.0 24.0 0.00 0.00 0.00 34 1005.9
20260505195050 77 155 6.0 28.0 0.00 0.00 0.00 36 1006.0
20260505194607 76 248 8.0 28.0 0.00 0.00 0.00 36 1006.0
20260505194050 76 223 8.0 23.0 0.00 0.00 0.00 37 1006.0
20260505193550 75 209 4.0 20.0 0.00 0.00 0.00 37 1006.0
20260505193115 76 266 8.0 20.0 0.00 0.00 0.00 36 1006.0
20260505192550 76 267 6.0 18.0 0.00 0.00 0.00 37 1006.2
20260505192050 76 194 6.0 19.0 0.00 0.00 0.00 37 1006.2
20260505191632 76 192 9.0 22.0 0.00 0.00 0.00 36 1006.2
20260505191049 77 259 9.0 23.0 0.00 0.00 0.00 37 1006.3
20260505190551 76 219 8.0 24.0 0.00 0.00 0.00 37 1006.2
20260505190112 76 136 8.0 24.0 0.00 0.00 0.00 37 1006.4
20260505185553 77 273 10.0 28.0 0.00 0.00 0.00 36 1006.4
20260505185051 77 217 11.0 28.0 0.00 0.00 0.00 37 1006.4
20260505184613 77 235 10.0 25.0 0.00 0.00 0.00 36 1006.3
20260505184051 77 206 9.0 23.0 0.00 0.00 0.00 36 1006.6
20260505183550 77 335 9.0 29.0 0.00 0.00 0.00 37 1006.6
20260505183056 77 304 9.0 30.0 0.00 0.00 0.00 37 1006.6
20260505182550 77 278 9.0 30.0 0.00 0.00 0.00 36 1006.7
20260505182056 77 231 10.0 30.0 0.00 0.00 0.00 37 1006.6
20260505181555 77 308 7.0 27.0 0.00 0.00 0.00 36 1006.5
20260505181050 77 246 9.0 22.0 0.00 0.00 0.00 36 1006.6
20260505180550 77 344 9.0 22.0 0.00 0.00 0.00 37 1007.0
20260505180104 77 313 8.0 21.0 0.00 0.00 0.00 37 1006.8
20260505175554 77 213 9.0 24.0 0.00 0.00 0.00 37 1007.0
20260505175050 77 194 11.0 24.0 0.00 0.00 0.00 37 1007.2
20260505174606 76 257 8.0 27.0 0.00 0.00 0.00 38 1007.1
20260505174051 76 281 10.0 32.0 0.00 0.00 0.00 37 1007.2
20260505173550 76 218 7.0 32.0 0.00 0.00 0.00 39 1007.2
20260505173054 76 254 10.0 25.0 0.00 0.00 0.00 39 1007.1
20260505172552 75 267 7.0 21.0 0.00 0.00 0.00 40 1007.3
20260505172050 75 241 11.0 21.0 0.00 0.00 0.00 41 1007.2
20260505171552 75 249 9.0 20.0 0.00 0.00 0.00 41 1007.2
20260505171051 75 178 8.0 17.0 0.00 0.00 0.00 42 1007.3
20260505170551 75 234 8.0 17.0 0.00 0.00 0.00 42 1007.3
20260505170055 74 281 8.0 20.0 0.00 0.00 0.00 43 1007.4
20260505165550 75 259 6.0 20.0 0.00 0.00 0.00 41 1007.4
20260505165050 75 270 6.0 17.0 0.00 0.00 0.00 41 1007.4
20260505164553 75 239 6.0 16.0 0.00 0.00 0.00 42 1007.4
20260505164050 75 200 6.0 15.0 0.00 0.00 0.00 43 1007.5
20260505163550 75 235 6.0 15.0 0.00 0.00 0.00 44 1007.5
20260505163056 74 234 2.0 14.0 0.00 0.00 0.00 44 1007.6
20260505162549 74 210 5.0 14.0 0.00 0.00 0.00 45 1007.7
20260505162050 73 216 4.0 16.0 0.00 0.00 0.00 44 1007.8
20260505161555 73 252 4.0 16.0 0.00 0.00 0.00 44 1007.9
20260505161051 73 289 5.0 16.0 0.00 0.00 0.00 44 1007.9
20260505160551 74 252 3.0 15.0 0.00 0.00 0.00 45 1007.9
20260505153057 73 281 8.0 16.0 0.00 0.00 0.00 45 1008.5
20260505152551 73 119 4.0 13.0 0.00 0.00 0.00 46 1008.6
20260505152052 72 150 5.0 15.0 0.00 0.00 0.00 45 1008.6
20260505151553 72 331 5.0 15.0 0.00 0.00 0.00 47 1008.7
20260505151050 72 333 3.0 17.0 0.00 0.00 0.00 47 1008.7
20260505150552 71 270 6.0 17.0 0.00 0.00 0.00 48 1008.6
20260505140550 68 275 8.0 25.0 0.00 0.00 0.00 52 1009.3
20260505124557 61 322 5.0 11.0 0.00 0.00 0.00 60 1009.6
20260505124052 61 300 3.0 14.0 0.00 0.00 0.00 61 1009.5
20260505123553 60 165 4.0 14.0 0.00 0.00 0.00 61 1009.5
20260505123101 60 260 6.0 14.0 0.00 0.00 0.00 62 1009.5
20260505122550 59 225 4.0 14.0 0.00 0.00 0.00 63 1009.5
20260505122050 57 257 4.0 10.0 0.00 0.00 0.00 65 1009.4
20260505121554 55 199 4.0 10.0 0.00 0.00 0.00 65 1009.2
20260505121050 54 150 1.0 4.0 0.00 0.00 0.00 62 1009.4
20260505120550 53 215 0.0 3.0 0.00 0.00 0.00 60 1009.4
20260505120054 52 0 0.0 0.0 0.00 0.00 0.00 58 1009.3
20260505115549 51 0 0.0 0.0 0.00 0.00 0.00 55 1009.4
20260505115050 50 0 0.0 0.0 0.00 0.00 0.00 52 1009.4
20260505114600 49 0 0.0 0.0 0.00 0.00 0.00 51 1009.4
20260505114050 49 0 0.0 0.0 0.00 0.00 0.00 50 1009.4
20260505113549 48 0 0.0 0.0 0.00 0.00 0.00 48 1009.4
20260505113057 47 0 0.0 0.0 0.00 0.00 0.00 45 1009.3
20260505112550 46 0 0.0 0.0 0.00 0.00 0.00 43 1009.4
20260505112050 46 0 0.0 1.0 0.00 0.00 0.00 42 1009.4
20260505111557 45 0 0.0 3.0 0.00 0.00 0.00 41 1009.4
20260505111050 44 0 0.0 3.0 0.00 0.00 0.00 41 1009.4
20260505110551 44 0 0.0 2.0 0.00 0.00 0.00 41 1009.1
20260505102050 42 0 0.0 0.0 0.00 0.00 0.00 48 1009.0
20260505101605 42 0 0.0 0.0 0.00 0.00 0.00 48 1009.1
20260505101053 42 0 0.0 0.0 0.00 0.00 0.00 49 1009.1
20260505100550 42 0 0.0 2.0 0.00 0.00 0.00 49 1008.9
20260505100104 42 0 0.0 2.0 0.00 0.00 0.00 49 1008.9
20260505095551 42 0 0.0 2.0 0.00 0.00 0.00 50 1009.0
20260505095050 42 0 0.0 2.0 0.00 0.00 0.00 50 1008.8
20260505094551 43 138 0.0 1.0 0.00 0.00 0.00 51 1008.5
20260505094050 43 0 0.0 1.0 0.00 0.00 0.00 51 1008.5
20260505093550 43 0 0.0 2.0 0.00 0.00 0.00 51 1008.7
20260505093104 43 0 0.0 2.0 0.00 0.00 0.00 51 1008.6
20260505092550 43 327 0.0 2.0 0.00 0.00 0.00 51 1008.7
20260505092050 43 0 0.0 2.0 0.00 0.00 0.00 51 1008.6
20260505091556 43 327 0.0 2.0 0.00 0.00 0.00 51 1008.7
20260505091049 43 0 0.0 0.0 0.00 0.00 0.00 50 1008.6
20260505090550 43 0 0.0 0.0 0.00 0.00 0.00 50 1008.6
20260505090050 43 0 0.0 2.0 0.00 0.00 0.00 49 1008.7
20260505085550 43 0 0.0 2.0 0.00 0.00 0.00 49 1008.7
20260505085051 43 0 0.0 2.0 0.00 0.00 0.00 48 1008.8
20260505084602 43 0 0.0 2.0 0.00 0.00 0.00 48 1008.9
20260505084049 43 0 0.0 1.0 0.00 0.00 0.00 48 1008.9
20260505083551 43 0 0.0 0.0 0.00 0.00 0.00 49 1009.0
20260505083049 43 0 0.0 0.0 0.00 0.00 0.00 49 1009.1
20260505082550 43 0 0.0 0.0 0.00 0.00 0.00 50 1009.2
20260505082050 42 0 0.0 0.0 0.00 0.00 0.00 50 1009.1
20260505081605 42 0 0.0 0.0 0.00 0.00 0.00 50 1009.1
20260505081051 42 0 0.0 0.0 0.00 0.00 0.00 51 1009.1
20260505080553 42 0 0.0 0.0 0.00 0.00 0.00 52 1009.1
20260505080100 42 0 0.0 2.0 0.00 0.00 0.00 52 1009.1
20260505075550 42 0 0.0 2.0 0.00 0.00 0.00 52 1009.0
20260505075050 42 327 1.0 2.0 0.00 0.00 0.00 52 1009.0
20260505074552 42 326 0.0 2.0 0.00 0.00 0.00 53 1008.9
20260505074050 42 323 0.0 0.0 0.00 0.00 0.00 54 1009.0
20260505073550 42 0 0.0 0.0 0.00 0.00 0.00 54 1009.0
20260505073104 42 0 0.0 0.0 0.00 0.00 0.00 55 1009.2
20260505072549 43 0 0.0 0.0 0.00 0.00 0.00 55 1009.2
20260505072049 43 0 0.0 0.0 0.00 0.00 0.00 56 1009.0
20260505071554 43 0 0.0 0.0 0.00 0.00 0.00 57 1009.0
20260505071050 43 0 0.0 0.0 0.00 0.00 0.00 58 1009.0
20260505070551 43 0 0.0 0.0 0.00 0.00 0.00 58 1009.1
20260505070058 43 0 0.0 0.0 0.00 0.00 0.00 59 1009.1
20260505065551 43 0 0.0 0.0 0.00 0.00 0.00 59 1009.2
20260505065051 43 0 0.0 0.0 0.00 0.00 0.00 59 1009.1
20260505064551 43 0 0.0 0.0 0.00 0.00 0.00 60 1009.2
20260505064050 44 0 0.0 0.0 0.00 0.00 0.00 61 1009.1
20260505063551 44 0 0.0 0.0 0.00 0.00 0.00 62 1009.2
20260505063114 44 0 0.0 0.0 0.00 0.00 0.00 62 1009.3
20260505062550 44 0 0.0 2.0 0.00 0.00 0.00 62 1009.3
20260505062049 44 0 0.0 2.0 0.00 0.00 0.00 63 1009.4
20260505061554 44 0 0.0 2.0 0.00 0.00 0.00 63 1009.4
20260505061050 44 0 0.0 0.0 0.00 0.00 0.00 64 1009.5
20260505060550 45 0 0.0 3.0 0.00 0.00 0.00 64 1009.6
20260505060055 45 0 0.0 3.0 0.00 0.00 0.00 64 1009.6
20260505055550 45 323 1.0 3.0 0.00 0.00 0.00 65 1009.6
20260505055050 45 0 0.0 3.0 0.00 0.00 0.00 65 1009.5
20260505054559 45 320 0.0 3.0 0.00 0.00 0.00 65 1009.7
20260505054051 45 0 0.0 3.0 0.00 0.00 0.00 66 1009.7
20260505053549 45 0 0.0 3.0 0.00 0.00 0.00 67 1009.7
20260505053054 45 0 0.0 0.0 0.00 0.00 0.00 67 1009.7
20260505052551 45 0 0.0 0.0 0.00 0.00 0.00 68 1009.6
20260505052051 46 0 0.0 0.0 0.00 0.00 0.00 68 1009.7
20260505051557 46 0 0.0 0.0 0.00 0.00 0.00 68 1009.7
20260505051054 46 0 0.0 0.0 0.00 0.00 0.00 69 1009.8
20260505050551 46 0 0.0 0.0 0.00 0.00 0.00 69 1009.7
20260505041551 47 0 0.0 0.0 0.00 0.00 0.00 70 1009.7
20260505041052 47 0 0.0 0.0 0.00 0.00 0.00 70 1009.7
20260505040552 47 0 0.0 0.0 0.00 0.00 0.00 70 1009.7
20260505040057 47 0 0.0 0.0 0.00 0.00 0.00 70 1009.8
20260505035552 47 0 0.0 0.0 0.00 0.00 0.00 70 1009.7
20260505035052 47 0 0.0 0.0 0.00 0.00 0.00 70 1009.7
20260505034555 47 0 0.0 1.0 0.00 0.00 0.00 70 1009.6
20260505034052 47 0 0.0 1.0 0.00 0.00 0.00 70 1009.5
20260505033552 47 0 0.0 1.0 0.00 0.00 0.00 70 1009.5
20260505033058 48 0 0.0 1.0 0.00 0.00 0.00 70 1009.5
20260505032552 48 0 0.0 1.0 0.00 0.00 0.00 70 1009.5
20260505032051 48 0 0.0 2.0 0.00 0.00 0.00 70 1009.5
20260505031554 48 0 0.0 3.0 0.00 0.00 0.00 70 1009.6
20260505031051 48 0 0.0 3.0 0.00 0.00 0.00 70 1009.6
20260505030557 49 60 0.0 2.0 0.00 0.00 0.00 70 1009.5
20260505030106 49 0 0.0 2.0 0.00 0.00 0.00 70 1009.5
20260505025553 49 0 0.0 2.0 0.00 0.00 0.00 69 1009.5
20260505025054 49 0 0.0 2.0 0.00 0.00 0.00 70 1009.4
20260505024558 49 0 0.0 2.0 0.00 0.00 0.00 69 1009.4
20260505024052 49 0 0.0 3.0 0.00 0.00 0.00 69 1009.4
20260505023554 50 60 0.0 3.0 0.00 0.00 0.00 69 1009.5
20260505023105 50 0 0.0 3.0 0.00 0.00 0.00 68 1009.4
20260505022549 50 57 0.0 2.0 0.00 0.00 0.00 68 1009.3
20260505022053 51 0 0.0 3.0 0.00 0.00 0.00 67 1009.3
20260505021554 51 0 0.0 3.0 0.00 0.00 0.00 67 1009.3
20260505021050 51 0 0.0 3.0 0.00 0.00 0.00 67 1009.3
20260505020550 52 0 0.0 3.0 0.00 0.00 0.00 66 1009.3
20260505020054 52 0 0.0 5.0 0.00 0.00 0.00 66 1009.3
20260505015550 52 57 0.0 5.0 0.00 0.00 0.00 65 1009.2
20260505015050 52 56 3.0 5.0 0.00 0.00 0.00 64 1009.0
20260505014558 52 196 0.0 0.0 0.00 0.00 0.00 65 1009.2
20260505014050 52 0 0.0 0.0 0.00 0.00 0.00 64 1009.1
20260505013550 53 0 0.0 0.0 0.00 0.00 0.00 64 1008.8
20260505013053 53 0 0.0 0.0 0.00 0.00 0.00 63 1008.9
20260505012550 54 0 0.0 0.0 0.00 0.00 0.00 62 1008.7
20260505012049 54 0 0.0 0.0 0.00 0.00 0.00 61 1008.7
20260505011554 54 0 0.0 0.0 0.00 0.00 0.00 61 1008.7
20260505011049 55 0 0.0 0.0 0.00 0.00 0.00 59 1008.7
20260505010549 55 0 0.0 0.0 0.00 0.00 0.00 58 1008.7
20260505010110 56 0 0.0 0.0 0.00 0.00 0.00 56 1008.5
20260505005550 57 0 0.0 0.0 0.00 0.00 0.00 55 1008.5
20260505005050 57 0 0.0 0.0 0.00 0.00 0.00 54 1008.5
20260505004557 58 0 0.0 0.0 0.00 0.00 0.00 53 1008.5
20260505004048 59 0 0.0 0.0 0.00 0.00 0.00 51 1008.2
20260505003549 59 0 0.0 0.0 0.00 0.00 0.00 49 1008.3
20260505003054 60 0 0.0 1.0 0.00 0.00 0.00 47 1008.1
20260505002550 61 0 0.0 2.0 0.00 0.00 0.00 45 1007.9
20260505002050 61 0 0.0 2.0 0.00 0.00 0.00 44 1008.0